Tracking 29892 objects as of 21-Nov-2024
HD Live streaming from Space Station
objects crossing your sky now

STARLINK-3516

Track STARLINK-3516 now!
10-day predictions
STARLINK-3516 is classified as:


NORAD ID: 51739
Int'l Code: 2022-016AB
Perigee: 545.8 km
Apogee: 547.9 km
Inclination: 53.2 °
Period: 95.4 minutes
Semi major axis: 6917 km
RCS: Unknown
Launch date: February 21, 2022
Source: United States (US)
Launch site: AIR FORCE EASTERN TEST RANGE (AFETR)
Your satellite tracking list
Your tracking list is empty




NASA's NSSDC Master Catalog

Two Line Element Set (TLE):
1 51739U 22016AB  24325.89945067 -.00000046  00000-0  15187-4 0  9997
2 51739  53.2162 286.0442 0001490  84.0429 276.0733 15.08848416153162
Source of the keplerian elements: AFSPC